Find Starlink 35302

NORAD ID: 65845 Int'l Des: 2025-221 Owner: SPXS Country: US Constellation: starlink operational
LEOCIRCULAR

Current View

Loading 3D Globe...

About Starlink 35302

Description loading...

Upcoming Passes

Passes for default location (London). Set your location on the main map for personalized predictions.

Altitude History

Loading altitude history...

Two-Line Element Set

1 65845U 25221Y 26146.10400722 .00036241 00000-0 10779-2 0 9997
2 65845 53.1615 88.2091 0001453 87.8166 272.3003 15.34419363 36597
Epoch: May 26, 2026 • Age: 12 hours

Current Status

Altitude 463.2 km
Velocity 7.64 km/s
Sub-Earth Point 27.07°N, 148.37°E
Launch Date Sep 29, 2025
Age 0.6 years
Type internet

Technical Details

Classification Payload
Mass 575.00 kg
Dry Mass 530.00 kg
Total Mass 575.00 kg
Length 0.30 m
Diameter 4.10 m
Span 29.00 m
Shape Box + pan
Manufacturer SPXS
Bus Type Starlink V2MO
Phase Status In Orbit
Owner/State SPXS/US

Most Searched